[[{"header":{"parameterUnit":"m.s-1","parameterCategory":1,"la1":30.2991,"la2":30.254,"lo1":-89.0895,"lo2":-89.0444,"dy":0.0017,"dx":0.0017,"nx":28,"ny":28,"refTime":"2025-03-24T03:00:00:Z","depth":0,"parameterNumber":2,"parameterNumberName":"U-component_of_WINDS"},"data":[0,0,0,0,0,0,0,0,0,0,0,0,0,0,0,0,0,0,0,0,0,0,0,0,0,0,0,0,0,0,0,0,0,0,0,0,0,0,0,0,0,0,0,0,0,0,0,0,0,0,0,0,0,0,0,0,0,0,-2.6122,-2.6122,0,-2.6128,-2.6128,-2.6128,-2.6109,-2.6108,-2.6108,-2.6107,-2.6114,-2.6115,-2.6116,0,0,0,0,0,0,0,0,0,0,0,0,0,-2.6097,-2.6097,-2.6122,-2.6122,-2.6122,-2.6128,-2.6128,-2.6128,-2.6109,-2.6108,-2.6108,-2.6107,-2.6114,-2.6115,-2.6116,0,0,0,0,0,0,0,0,0,0,0,0,0,-2.6106,-2.6097,-2.6122,-2.6113,-2.6113,-2.6128,-2.6128,-2.6128,-2.6109,-2.6108,-2.6107,-2.6107,-2.6114,-2.6115,-2.6116,-2.614,0,0,-2.6119,-2.612,0,0,0,0,0,0,0,0,-2.6105,-2.6107,-2.6115,-2.6114,-2.6113,-2.6117,-2.6121,-2.6132,-2.6109,-2.6111,-2.6107,-2.6106,-2.6116,-2.6117,-2.612,-2.614,-2.614,-2.6119,-2.612,-2.612,-2.6121,0,0,0,0,0,0,0,-2.6104,-2.6106,-2.6124,-2.6115,-2.6114,-2.611,-2.611,-2.6123,-2.6118,-2.611,-2.6109,-2.611,-2.6115,-2.6119,-2.612,-2.6141,-2.6119,-2.612,-2.6121,-2.6121,-2.6182,-2.6183,0,0,0,0,0,0,-2.6105,-2.6106,-2.6124,-2.6124,-2.6107,-2.6111,-2.6111,-2.6116,-2.6118,-2.6117,-2.6111,-2.6109,-2.6117,-2.6118,-2.612,-2.6148,-2.612,-2.6121,-2.6122,-2.6181,-2.6182,-2.6183,0,0,0,0,0,0,-2.6104,-2.6107,-2.6124,-2.6115,-2.6117,-2.6112,-2.6118,-2.6117,-2.612,-2.6118,-2.6117,-2.6115,-2.6117,-2.6118,-2.6135,-2.6148,-2.6122,-2.6123,-2.618,-2.6181,-2.6183,-2.6204,0,0,0,0,0,0,-2.6104,-2.6106,-2.6115,-2.6115,-2.6117,-2.6138,-2.6119,-2.6118,-2.6122,-2.612,-2.6122,-2.6121,-2.6116,-2.6134,-2.6136,-2.6149,-2.6124,-2.6179,-2.618,-2.6182,-2.6202,-2.6206,-2.621,0,0,0,0,0,-2.6103,-2.6121,-2.6115,-2.6118,-2.6128,-2.6139,-2.614,-2.6134,-2.6123,-2.6132,-2.6131,-2.6121,-2.6147,-2.6135,-2.6138,-2.6151,-2.6178,-2.618,-2.6182,-2.6201,-2.6205,-2.6209,0,0,0,0,0,0,-2.6123,-2.6121,-2.6115,-2.6133,-2.6136,-2.6136,-2.6146,-2.6139,-2.6145,-2.6143,-2.6135,-2.6136,-2.6154,-2.6155,-2.6142,-2.6175,-2.616,-2.6163,-2.6174,-2.6178,-2.6182,-2.6181,-2.6125,0,0,0,0,0,-2.6129,-2.6138,-2.6136,-2.6153,-2.6155,-2.6151,-2.6155,-2.615,-2.6153,-2.6155,-2.6154,-2.6158,-2.6167,-2.6173,-2.6181,-2.6203,-2.6203,-2.6214,-2.6217,-2.622,-2.6222,-2.6234,-2.6239,-2.619,-2.619,-2.619,0,0,-2.6143,-2.6143,-2.6149,-2.6157,-2.6159,-2.6169,-2.6152,-2.6163,-2.617,-2.6156,-2.6172,-2.6172,-2.6176,-2.6196,-2.6204,-2.6197,-2.6236,-2.6223,-2.6226,-2.6226,-2.6237,-2.6242,-2.6246,-2.6192,-2.6191,-2.6191,0,0,-2.6172,-2.6173,-2.6187,-2.619,-2.6193,-2.619,-2.6193,-2.6194,-2.6194,-2.6209,-2.6199,-2.6209,-2.6224,-2.6227,-2.6231,-2.6263,-2.6254,-2.6266,-2.6284,-2.6296,-2.63,-2.6303,-2.6314,-2.6318,-2.6269,-2.6269,-2.6269,0,-2.6188,-2.6202,-2.6195,-2.6207,-2.6211,-2.62,-2.6214,-2.6217,-2.6223,-2.6226,-2.6218,-2.6237,-2.6239,-2.6259,-2.6267,-2.6271,-2.6274,-2.6265,-2.63,-2.6303,-2.6306,-2.6317,-2.6321,-2.627,-2.627,-2.627,-2.6269,0,-2.6222,-2.6232,-2.6243,-2.6249,-2.6254,-2.6268,-2.6263,-2.627,-2.6265,-2.6263,-2.628,-2.6282,-2.629,-2.6295,-2.629,-2.6315,-2.631,-2.6301,-2.6286,-2.6312,-2.6322,-2.6326,-2.6272,-2.6271,-2.6271,-2.6271,0,0,-2.6262,-2.6265,-2.6269,-2.6271,-2.6275,-2.6282,-2.6296,-2.6304,-2.6309,-2.6315,-2.6325,-2.6339,-2.6331,-2.6336,-2.6331,-2.6342,-2.6367,-2.6332,-2.6332,-2.6337,-2.6394,-2.64,-2.6405,-2.6362,-2.6363,-2.6364,-2.6394,0,-2.6291,-2.6312,-2.6307,-2.6329,-2.6338,-2.6328,-2.634,-2.6343,-2.6343,-2.6351,-2.6351,-2.6361,-2.635,-2.6352,-2.6362,-2.6362,-2.6378,-2.636,-2.6372,-2.6373,-2.637,-2.641,-2.6416,-2.6444,-2.6397,-2.6398,-2.6399,0,-2.6326,-2.6332,-2.6355,-2.6357,-2.636,-2.6371,-2.6378,-2.6386,-2.6391,-2.639,-2.6395,-2.6389,-2.6403,-2.6389,-2.6408,-2.6396,-2.6401,-2.6402,-2.6403,-2.6402,-2.6386,-2.641,-2.6452,-2.6456,-2.6405,-2.6404,-2.6404,0,-2.6352,-2.6366,-2.6381,-2.6384,-2.6387,-2.6395,-2.6397,-2.64,-2.6405,-2.6412,-2.6416,-2.6424,-2.6429,-2.6436,-2.6433,-2.6423,-2.6453,-2.6438,-2.6452,-2.6452,-2.6458,-2.6457,-2.6501,-2.6463,-2.6463,-2.6463,-2.6463,0,-2.6384,-2.6398,-2.6393,-2.6402,-2.6418,-2.6413,-2.6429,-2.643,-2.6433,-2.6443,-2.6436,-2.6445,-2.6441,-2.645,-2.6448,-2.6464,-2.6467,-2.6466,-2.6465,-2.6466,-2.6466,-2.6468,-2.6466,-2.6464,-2.6464,-2.6464,-2.6463,0,-2.6415,-2.6413,-2.6428,-2.643,-2.6431,-2.6443,-2.6445,-2.6454,-2.6453,-2.6465,-2.6468,-2.6467,-2.6478,-2.6476,-2.6488,-2.6487,-2.6507,-2.6504,-2.6505,-2.6504,-2.6518,-2.6516,-2.6563,-2.6569,-2.6529,-2.6529,-2.653,0,-2.6435,-2.6445,-2.6448,-2.6454,-2.6456,-2.6466,-2.6471,-2.6467,-2.6473,-2.648,-2.6488,-2.6498,-2.6506,-2.6524,-2.6525,-2.6534,-2.6531,-2.6547,-2.6532,-2.6533,-2.653,-2.6529,-2.653,-2.6549,-2.655,-2.655,-2.655,0,-2.647,-2.6468,-2.6476,-2.6483,-2.649,-2.6496,-2.6501,-2.6507,-2.6503,-2.6511,-2.6521,-2.6527,-2.654,-2.655,-2.6559,-2.6562,-2.6556,-2.6555,-2.6559,-2.6559,-2.6559,-2.6558,-2.6512,-2.6554,-2.6553,-2.6553,-2.6553,-2.6553,-2.6495,-2.6504,-2.6507,-2.6516,-2.652,-2.6525,-2.6534,-2.6535,-2.6543,-2.6552,-2.655,-2.6562,-2.6568,-2.6579,-2.6583,-2.6593,-2.6587,-2.6592,-2.6593,-2.6594,-2.6596,-2.6558,-2.6595,-2.6595,-2.6594,-2.6594,-2.6594,0,-2.6529,-2.6531,-2.6539,-2.6547,-2.6554,-2.6548,-2.6554,-2.656,-2.6571,-2.6576,-2.6584,-2.6597,-2.6607,-2.6609,-2.6619,-2.6627,-2.6624,-2.6629,-2.6628,-2.6629,-2.6601,-2.6596,-2.6631,-2.6631,-2.6631,-2.6631,-2.6631,-2.6631,-2.6547,-2.6562,-2.6561,-2.6577,-2.658,-2.6591,-2.6595,-2.66,-2.6604,-2.6618,-2.6626,-2.6628,-2.6632,-2.6642,-2.6651,-2.6652,-2.6656,-2.6662,-2.6661,-2.6634,-2.6631,-2.6627,-2.6623,-2.6663,-2.6663,-2.6688,-2.6688,-2.6688]},{"header":{"parameterUnit":"m.s-1","parameterCategory":1,"la1":30.2991,"la2":30.254,"lo1":-89.0895,"lo2":-89.0444,"dy":0.0017,"dx":0.0017,"nx":28,"ny":28,"refTime":"2025-03-24T03:00:00:Z","depth":0,"parameterNumber":3,"parameterNumberName":"V-component_of_WINDS"},"data":[0,0,0,0,0,0,0,0,0,0,0,0,0,0,0,0,0,0,0,0,0,0,0,0,0,0,0,0,0,0,0,0,0,0,0,0,0,0,0,0,0,0,0,0,0,0,0,0,0,0,0,0,0,0,0,0,0,0,5.0026,5.0026,0,5.0005,5.0005,5.0005,5.0013,5.0014,5.0014,5.0015,4.9991,4.999,4.9989,0,0,0,0,0,0,0,0,0,0,0,0,0,5.0073,5.0072,5.0026,5.0025,5.0025,5.0005,5.0005,5.0005,5.0013,5.0014,5.0014,5.0015,4.9991,4.999,4.9989,0,0,0,0,0,0,0,0,0,0,0,0,0,5.0052,5.0072,5.0026,5.0027,5.0027,5.0006,5.0005,5.0005,5.0013,5.0014,5.0014,5.0015,4.9992,4.999,4.9988,4.9964,0,0,4.9983,4.9983,0,0,0,0,0,0,0,0,5.0053,5.0051,5.0027,5.0027,5.0027,5.0013,5.0013,4.9991,5.0013,5.0018,5.0015,5.0016,4.9997,4.9995,4.999,4.9962,4.9961,4.9983,4.9982,4.9982,4.9981,0,0,0,0,0,0,0,5.0055,5.0052,5.0018,5.0027,5.0027,5.0029,5.0027,5.0009,5.0004,5.0018,5.0018,5.0016,4.9997,4.9991,4.9989,4.9961,4.9983,4.9982,4.9981,4.998,4.9918,4.9918,0,0,0,0,0,0,5.0056,5.0053,5.0018,5.0017,5.0042,5.0028,5.0025,5.0016,5.0004,5.0003,5.0015,5.0016,4.9994,4.9991,4.9988,4.9962,4.9982,4.998,4.9979,4.9919,4.9918,4.9917,0,0,0,0,0,0,5.0057,5.0053,5.0019,5.0035,5.0031,5.0026,5.0016,5.0016,5.001,5.0002,5.0001,5.001,4.9994,4.9991,4.9971,4.9961,4.9979,4.9978,4.992,4.9919,4.9918,4.9906,0,0,0,0,0,0,5.0059,5.0054,5.0043,5.0035,5.003,5.0001,5.0015,5.0015,5.0007,5.0008,4.9997,4.9996,4.9995,4.9974,4.997,4.9959,4.9977,4.9921,4.9919,4.9918,4.9907,4.9905,4.9903,0,0,0,0,0,5.006,5.0039,5.0043,5.0038,5.0017,5.0001,4.9998,4.9998,5.0006,4.9996,4.9993,4.9996,4.9963,4.9971,4.9967,4.9956,4.9921,4.992,4.9918,4.9908,4.9905,4.9903,0,0,0,0,0,0,5.0044,5.0038,5.0042,5.0017,5.001,5.0002,4.9989,4.9994,4.9983,4.9984,4.9984,4.9982,4.9962,4.9957,4.9967,4.9934,4.9943,4.9941,4.9938,4.9935,4.9932,4.9934,4.9975,0,0,0,0,0,5.0038,5.0025,5.002,4.9999,4.9996,4.9994,4.9986,4.9988,4.9979,4.9976,4.997,4.9962,4.9951,4.9942,4.9931,4.9908,4.9907,4.9898,4.9896,4.9894,4.9891,4.9883,4.988,4.9912,4.9912,4.9912,0,0,5.0023,5.0019,5.001,4.9996,4.999,4.9978,4.999,4.9976,4.9967,4.9973,4.9955,4.9952,4.9943,4.9923,4.9913,4.9918,4.9883,4.9892,4.989,4.9889,4.9881,4.9878,4.9875,4.9911,4.9912,4.9912,0,0,4.9993,4.9987,4.9971,4.9967,4.9959,4.9959,4.9956,4.9949,4.9947,4.993,4.9936,4.9926,4.9904,4.99,4.9894,4.9868,4.9872,4.9865,4.9852,4.9843,4.9841,4.9839,4.9832,4.9829,4.9863,4.9862,4.9862,0,4.9976,4.9958,4.9961,4.9948,4.9943,4.9951,4.9936,4.9931,4.992,4.9916,4.9922,4.99,4.9894,4.9874,4.9869,4.9863,4.9861,4.9865,4.9841,4.9839,4.9837,4.983,4.9827,4.9862,4.9862,4.9862,4.9862,0,4.994,4.9928,4.9916,4.9908,4.9901,4.9887,4.9889,4.9882,4.9886,4.9886,4.987,4.9865,4.9854,4.985,4.9851,4.9832,4.9836,4.9841,4.9851,4.9833,4.9827,4.9824,4.9861,4.9861,4.9861,4.9861,0,0,4.9893,4.9892,4.9888,4.9886,4.9882,4.9873,4.9861,4.9853,4.9848,4.9842,4.9832,4.9818,4.9825,4.9819,4.982,4.9813,4.9797,4.982,4.982,4.9817,4.9779,4.9775,4.9772,4.9801,4.98,4.98,4.978,0,4.9863,4.9843,4.9848,4.9828,4.9819,4.9829,4.9819,4.9816,4.9817,4.981,4.9811,4.9801,4.981,4.9807,4.98,4.98,4.9789,4.9802,4.9793,4.9792,4.9794,4.9768,4.9762,4.9744,4.9778,4.9777,4.9777,0,4.9824,4.982,4.98,4.9802,4.9798,4.9789,4.9785,4.9777,4.9776,4.9777,4.9774,4.9779,4.9769,4.978,4.9767,4.9776,4.9773,4.9773,4.9773,4.9771,4.9783,4.9767,4.9738,4.9736,4.9773,4.9773,4.9773,0,4.9795,4.9784,4.9772,4.977,4.9771,4.9765,4.9766,4.9765,4.9761,4.9758,4.9756,4.9751,4.9748,4.9745,4.9749,4.9756,4.9737,4.9747,4.9739,4.9739,4.9733,4.9733,4.9704,4.9731,4.9731,4.9731,4.9731,0,4.9762,4.9749,4.976,4.9752,4.974,4.9747,4.9735,4.9736,4.9737,4.973,4.9739,4.9733,4.9739,4.9734,4.9738,4.9729,4.9727,4.9729,4.973,4.9728,4.9728,4.9725,4.9727,4.973,4.973,4.973,4.973,0,4.9726,4.9732,4.972,4.9724,4.9725,4.9716,4.972,4.9714,4.9718,4.971,4.9709,4.9714,4.9709,4.9714,4.9709,4.9712,4.97,4.9702,4.9701,4.9702,4.9693,4.9694,4.9661,4.9658,4.9687,4.9686,4.9686,0,4.9704,4.9695,4.97,4.9698,4.9698,4.9693,4.9691,4.97,4.9697,4.9698,4.9692,4.9689,4.9687,4.9679,4.9683,4.968,4.9683,4.9672,4.9682,4.9682,4.9685,4.9685,4.9686,4.9669,4.9669,4.9669,4.9668,0,4.9665,4.967,4.9667,4.9666,4.9664,4.9664,4.9664,4.9661,4.9671,4.9668,4.9665,4.9663,4.9661,4.9658,4.9657,4.9658,4.9666,4.9666,4.9664,4.9662,4.9662,4.9663,4.9695,4.9666,4.9666,4.9666,4.9666,4.9667,4.9636,4.9631,4.9635,4.9632,4.9634,4.9636,4.9632,4.9637,4.9634,4.9634,4.9639,4.9636,4.9639,4.9639,4.964,4.9638,4.9643,4.9639,4.9638,4.9638,4.9637,4.9663,4.9638,4.9638,4.9638,4.9638,4.9638,0,4.9599,4.9604,4.9602,4.9604,4.9603,4.9612,4.9614,4.9613,4.961,4.9613,4.9612,4.961,4.9609,4.9615,4.9615,4.9612,4.9616,4.9612,4.9612,4.9613,4.9632,4.9634,4.9609,4.9609,4.9609,4.9609,4.9609,4.9609,4.958,4.9572,4.9579,4.9573,4.9578,4.9575,4.9576,4.9579,4.9581,4.958,4.958,4.9584,4.9589,4.9591,4.9591,4.9593,4.9593,4.9588,4.9591,4.9608,4.9611,4.9614,4.9616,4.9588,4.9588,4.9572,4.9572,4.9572]}]]